Change the Weather History Date:

Monday, January 28, 2013

  Actual Average Record
Temperature  
Mean Temperature 60 °F -  
Max Temperature 70 °F - 74 °F (1975)
Min Temperature 50 °F - 10 °F (1986)
Degree Days  
Heating Degree Days 5    
Month to date heating degree days 328  
Since 1 July heating degree days 1002  
Growing Degree Days 10 (Base 50)    
Moisture  
Dew Point 47 °F    
Average Humidity 67    
Maximum Humidity 82    
Minimum Humidity 53    
Precipitation  
Precipitation 0.00 in - 1.53 in (1997)
Month to date precipitation 2.73  
Year to date precipitation 2.73  
Sea Level Pressure  
Sea Level Pressure 30.28 in    
Wind  
Wind Speed 6 mph (ESE)    
Max Wind Speed 12 mph    
Max Gust Speed 16 mph    
Visibility 10 miles    
Events      
T = Trace of Precipitation, MM = Missing Value Source: NWS Daily Summary

Daily Weather History Graph

Daily Weather History Graph

Search for Another Location

Airport or City:

Trip Planner

Search our weather history database for the weather conditions in past years. The results will help you decide how hot, cold, wet, or windy it might be!

Date:

Astronomy

Jan. 28, 2013 Rise Set
Actual Time 6:38 AM CST 5:11 PM CST
Civil Twilight 6:12 AM CST 5:37 PM CST
Nautical Twilight 5:43 AM CST 6:06 PM CST
Astronomical Twilight 5:13 AM CST 6:35 PM CST
Moon 6:55 PM CST (1/28) 7:11 AM CST (1/28)
Length of Visible Light 11h 24m
Length of Day
10h 32m
Full, 98% of the Moon is Illuminated
Jan 28
Full
Feb 3
Last Quarter
Feb 10
New
Feb 17
First Quarter
Feb 25
Full

Hourly Weather History & Observations

Time (CST) Temp. Dew Point Humidity Pressure Visibility Wind Dir Wind Speed Gust Speed Precip Events Conditions
12:15 AM 50.0 °F 33.8 °F 54% 30.32 in 10.0 mi ESE 9.2 mph - N/A   Mostly Cloudy
12:35 AM 50.0 °F 33.8 °F 54% 30.33 in 10.0 mi East 9.2 mph - N/A   Overcast
12:55 AM 50.0 °F 35.6 °F 58% 30.33 in 10.0 mi East 9.2 mph - N/A   Overcast
1:15 AM 50.0 °F 35.6 °F 58% 30.33 in 10.0 mi East 8.1 mph - N/A   Overcast
1:35 AM 51.8 °F 35.6 °F 54% 30.33 in 10.0 mi East 9.2 mph - N/A   Overcast
1:55 AM 51.8 °F 37.4 °F 58% 30.33 in 10.0 mi NE 11.5 mph - N/A   Overcast
2:15 AM 51.8 °F 37.4 °F 58% 30.33 in 10.0 mi East 5.8 mph - N/A   Overcast
2:35 AM 51.8 °F 37.4 °F 58% 30.33 in 10.0 mi East 6.9 mph - N/A   Overcast
2:55 AM 51.8 °F 37.4 °F 58% 30.32 in 10.0 mi ESE 9.2 mph - N/A   Overcast
3:16 AM 51.8 °F 39.2 °F 62% 30.31 in 10.0 mi East 9.2 mph 16.1 mph N/A   Overcast
3:35 AM 51.8 °F 39.2 °F 62% 30.31 in 10.0 mi ESE 6.9 mph - N/A   Overcast
3:55 AM 51.8 °F 39.2 °F 62% 30.31 in 10.0 mi SE 8.1 mph - N/A   Overcast
4:15 AM 51.8 °F 41.0 °F 67% 30.30 in 10.0 mi ESE 9.2 mph - N/A   Overcast
4:35 AM 51.8 °F 41.0 °F 67% 30.31 in 10.0 mi ESE 5.8 mph - N/A   Overcast
4:55 AM 51.8 °F 41.0 °F 67% 30.31 in 10.0 mi ESE 6.9 mph - N/A   Overcast
5:15 AM 51.8 °F 42.8 °F 71% 30.31 in 10.0 mi ESE 5.8 mph - N/A   Overcast
5:35 AM 51.8 °F 42.8 °F 71% 30.32 in 10.0 mi ESE 8.1 mph - N/A   Overcast
5:55 AM 51.8 °F 42.8 °F 71% 30.32 in 10.0 mi East 6.9 mph - N/A   Overcast
6:15 AM 51.8 °F 42.8 °F 71% 30.33 in 10.0 mi ESE 6.9 mph - N/A   Overcast
6:35 AM 51.8 °F 42.8 °F 71% 30.33 in 10.0 mi East 6.9 mph - N/A   Overcast
6:55 AM 51.8 °F 42.8 °F 71% 30.34 in 10.0 mi East 9.2 mph - N/A   Overcast
7:15 AM 51.8 °F 44.6 °F 76% 30.34 in 10.0 mi East 9.2 mph - N/A   Overcast
7:35 AM 51.8 °F 44.6 °F 76% 30.34 in 8.0 mi ESE 8.1 mph - N/A   Overcast
7:55 AM 51.8 °F 44.6 °F 76% 30.35 in 9.0 mi East 6.9 mph - N/A   Overcast
8:15 AM 51.8 °F 44.6 °F 76% 30.35 in 9.0 mi East 6.9 mph - N/A   Overcast
8:35 AM 50.0 °F 44.6 °F 82% 30.36 in 7.0 mi ESE 6.9 mph - N/A   Overcast
8:55 AM 50.0 °F 44.6 °F 82% 30.36 in 7.0 mi East 5.8 mph - N/A   Overcast
9:15 AM 51.8 °F 44.6 °F 76% 30.35 in 9.0 mi ESE 5.8 mph - N/A   Overcast
9:55 AM 51.8 °F 44.6 °F 76% 30.35 in 10.0 mi East 8.1 mph - N/A   Overcast
10:15 AM 53.6 °F 44.6 °F 72% 30.35 in 10.0 mi SE 5.8 mph - N/A   Overcast
10:35 AM 53.6 °F 44.6 °F 72% 30.35 in 10.0 mi SE 5.8 mph - N/A   Overcast
11:15 AM 55.4 °F 46.4 °F 72% 30.33 in 10.0 mi SE 9.2 mph - N/A   Overcast
11:35 AM 57.2 °F 48.2 °F 72% 30.32 in 10.0 mi SSE 10.4 mph - N/A   Overcast
11:55 AM 57.2 °F 48.2 °F 72% 30.31 in 10.0 mi South 5.8 mph - N/A   Overcast
12:15 PM 59.0 °F 50.0 °F 72% 30.29 in 10.0 mi SSE 8.1 mph - N/A   Overcast
12:35 PM 62.6 °F 50.0 °F 63% 30.28 in 9.0 mi Calm Calm - N/A   Scattered Clouds
12:55 PM 62.6 °F 50.0 °F 63% 30.27 in 8.0 mi Calm Calm - N/A   Clear
1:15 PM 64.4 °F 51.8 °F 64% 30.26 in 10.0 mi SSE 8.1 mph - N/A   Clear
1:35 PM 64.4 °F 51.8 °F 64% 30.25 in 10.0 mi South 10.4 mph - N/A   Partly Cloudy
1:55 PM 66.2 °F 51.8 °F 60% 30.25 in 10.0 mi South 8.1 mph - N/A   Clear
2:15 PM 66.2 °F 51.8 °F 60% 30.24 in 10.0 mi Calm Calm - N/A   Clear
2:35 PM 68.0 °F 51.8 °F 56% 30.24 in 10.0 mi Calm Calm - N/A   Clear
2:55 PM 68.0 °F 51.8 °F 56% 30.24 in 10.0 mi Calm Calm - N/A   Clear
3:15 PM 68.0 °F 51.8 °F 56% 30.24 in 10.0 mi Calm Calm - N/A   Partly Cloudy
3:35 PM 68.0 °F 51.8 °F 56% 30.24 in 10.0 mi Calm Calm - N/A   Scattered Clouds
3:55 PM 68.0 °F 51.8 °F 56% 30.23 in 10.0 mi Calm Calm - N/A   Partly Cloudy
4:15 PM 69.8 °F 51.8 °F 53% 30.23 in 10.0 mi Calm Calm - N/A   Scattered Clouds
4:35 PM 68.0 °F 51.8 °F 56% 30.23 in 10.0 mi Calm Calm - N/A   Partly Cloudy
4:55 PM 66.2 °F 51.8 °F 60% 30.24 in 10.0 mi Calm Calm - N/A   Clear
5:15 PM 66.2 °F 51.8 °F 60% 30.24 in 10.0 mi Calm Calm - N/A   Scattered Clouds
5:35 PM 64.4 °F 51.8 °F 64% 30.24 in 10.0 mi SE 3.5 mph - N/A   Mostly Cloudy
5:55 PM 64.4 °F 51.8 °F 64% 30.24 in 10.0 mi SE 3.5 mph - N/A   Scattered Clouds
6:15 PM 62.6 °F 51.8 °F 68% 30.24 in 10.0 mi ESE 4.6 mph - N/A   Scattered Clouds
6:35 PM 62.6 °F 53.6 °F 72% 30.24 in 10.0 mi ESE 4.6 mph - N/A   Scattered Clouds
6:55 PM 62.6 °F 51.8 °F 68% 30.23 in 10.0 mi ESE 4.6 mph - N/A   Clear
7:15 PM 62.6 °F 53.6 °F 72% 30.23 in 10.0 mi ESE 5.8 mph - N/A   Mostly Cloudy
7:35 PM 62.6 °F 53.6 °F 72% 30.23 in 10.0 mi ESE 6.9 mph - N/A   Mostly Cloudy
7:55 PM 62.6 °F 53.6 °F 72% 30.23 in 10.0 mi ESE 4.6 mph - N/A   Partly Cloudy
8:15 PM 62.6 °F 53.6 °F 72% 30.23 in 10.0 mi ESE 4.6 mph - N/A   Partly Cloudy
8:35 PM 62.6 °F 53.6 °F 72% 30.23 in 10.0 mi ESE 5.8 mph - N/A   Mostly Cloudy
8:55 PM 62.6 °F 53.6 °F 72% 30.23 in 10.0 mi ESE 4.6 mph - N/A   Overcast
9:15 PM 62.6 °F 53.6 °F 72% 30.23 in 10.0 mi SE 5.8 mph - N/A   Overcast
9:35 PM 62.6 °F 53.6 °F 72% 30.22 in 10.0 mi SE 4.6 mph - N/A   Overcast
9:55 PM 62.6 °F 53.6 °F 72% 30.22 in 10.0 mi SE 5.8 mph - N/A   Mostly Cloudy
10:15 PM 60.8 °F 53.6 °F 77% 30.22 in 10.0 mi ESE 5.8 mph - N/A   Mostly Cloudy
10:35 PM 60.8 °F 53.6 °F 77% 30.22 in 10.0 mi SE 4.6 mph - N/A   Mostly Cloudy
10:55 PM 60.8 °F 53.6 °F 77% 30.22 in 10.0 mi SE 3.5 mph - N/A   Overcast
11:15 PM 60.8 °F 53.6 °F 77% 30.22 in 10.0 mi ESE 4.6 mph - N/A   Overcast
11:35 PM 60.8 °F 53.6 °F 77% 30.22 in 10.0 mi SE 4.6 mph - N/A   Overcast
11:55 PM 60.8 °F 53.6 °F 77% 30.22 in 10.0 mi SE 4.6 mph - N/A   Overcast